Dewpoint
54 54 55 55 55 55 55 55 55 55 55 55 55 56 56 57 55 46 35 39 49 51 53 48 45 45 43 41 42 40 33 29 30 32 31 32 34 35 36 47 55 57 55 57 58
54 54 55 55 55 55 55 55 55 55 55 55 55 55 57 57 50 42 40 48 48 49 44 44 42 44 40 40 39 38 34 33 33 33 33 33 32 32 38 39 52 55 58 58 58
54 54 55 55 55 55 55 55 54 54 54 55 55 56 57 56 37 30 41 49 47 50 44 46 46 41 38 39 38 35 34 35 34 34 34 33 33 35 38 36 48 52 55 57 57
55 54 54 54 54 54 54 53 53 53 54 55 55 56 56 49 16 29 40 47 49 44 40 39 41 39 38 36 38 36 35 35 34 33 34 32 33 34 36 35 52 55 57 56 56
54 54 54 54 54 54 54 54 53 53 54 54 55 55 45 27 27 31 38 37 38 38 37 37 39 40 37 38 39 37 35 33 33 34 34 33 33 33 33 38 55 58 57 56 55
54 54 54 54 54 53 53 53 53 53 54 54 54 54 40 19 28 32 33 34 35 36 36 38 36 40 40 39 38 36 35 36 36 35 33 30 29 39 36 51 54 57 57 57 56
54 54 54 53 53 53 52 53 53 54 54 54 55 51 38 25 33 33 33 33 35 36 34 38 39 40 39 37 39 37 34 31 28 30 31 32 25 33 39 51 51 52 56 55 52
54 54 54 53 53 53 53 53 54 55 55 54 54 46 27 35 37 33 34 33 35 36 36 37 42 40 39 39 31 29 28 23 25 28 28 26 20 26 47 48 51 51 51 51 51
54 53 53 53 53 53 53 54 55 55 53 53 45 37 21 31 27 33 34 32 34 35 37 41 39 37 31 28 24 26 22 22 24 26 26 25 21 27 48 49 48 47 48 49 51
51 52 52 53 53 52 52 51 51 45 47 47 41 25 23 20 29 33 35 34 32 31 30 36 30 26 25 26 18 21 22 22 21 25 25 23 22 23 44 47 46 47 48 49 49
51 51 53 53 52 50 42 30 24 22 30 24 24 22 23 30 34 31 34 31 32 28 23 28 21 21 24 27 26 26 24 22 24 25 25 22 22 22 38 46 46 45 46 48 50
50 51 52 52 52 47 38 34 38 39 28 34 34 31 30 32 26 28 31 25 28 23 26 24 16 23 26 27 24 24 23 22 24 26 26 22 21 22 38 44 45 45 48 47 51
50 51 51 52 50 42 39 39 42 43 32 29 33 29 24 30 26 25 29 29 27 19 23 24 22 26 24 20 22 23 22 23 24 26 24 20 16 18 27 42 41 41 49 53 53
50 50 50 49 33 43 38 43 43 42 22 20 21 24 25 30 18 32 32 30 23 18 25 22 26 24 23 16 25 21 24 26 26 23 17 20 13 17 22 35 39 42 43 50 52
50 49 49 47 41 34 40 44 43 38 -8 16 18 28 26 24 25 22 33 28 23 22 23 3 22 24 19 16 26 19 26 27 27 23 19 18 14 15 20 22 28 41 46 47 52
50 49 48 40 43 45 45 44 40 11 -6 8 20 19 14 22 25 25 24 28 28 17 17 22 26 28 24 25 23 25 22 18 24 22 14 18 15 13 16 18 21 23 29 42 52
49 49 47 44 34 45 45 37 5 0 11 5 9 15 17 16 17 20 18 18 13 1 0 10 9 16 24 14 18 23 16 2 2 12 12 18 13 13 19 21 20 22 26 43 50
48 48 44 44 44 44 39 15 -8 -4 8 18 15 14 13 17 13 14 13 9 19 13 8 5 -7 7 18 21 20 22 18 11 1 10 15 18 11 14 21 25 25 26 26 29 44
45 43 44 45 44 43 26 0 -4 3 18 12 8 8 5 14 14 8 6 12 19 16 7 5 -4 12 21 24 23 18 18 22 19 19 15 14 14 17 20 20 23 23 22 23 25
35 39 42 44 43 37 19 5 8 20 21 19 3 9 8 6 8 9 6 17 20 20 19 13 9 11 13 17 22 23 24 11 13 2 5 12 13 13 17 17 21 18 15 19 20
37 17 37 43 40 29 8 9 22 22 23 17 13 13 11 10 12 9 5 15 22 21 21 19 14 5 6 3 9 15 17 14 12 16 10 2 -2 18 18 18 16 17 15 16 16
28 11 40 40 19 30 20 25 23 18 26 21 21 17 14 15 13 10 6 13 22 21 12 19 15 11 5 8 17 20 17 13 6 6 10 7 6 13 15 12 12 13 13 14 17
17 22 38 31 7 10 22 22 21 19 20 23 21 22 20 17 8 9 11 18 21 19 14 15 7 2 0 6 7 10 14 16 15 16 12 7 5 12 13 17 18 15 13 14 20
23 10 27 30 27 22 16 13 16 25 22 23 21 19 17 15 18 15 15 16 18 20 24 20 15 5 -1 0 4 8 10 12 12 12 11 11 9 11 18 21 21 20 18 17 22
25 13 24 13 25 26 26 23 19 15 22 22 18 19 17 14 14 13 13 15 14 19 26 22 13 15 14 14 14 14 14 15 14 14 12 11 11 20 23 24 23 25 22 22 23
19 19 29 18 25 28 26 18 19 19 20 17 18 19 19 16 15 12 14 14 11 18 23 24 14 21 18 17 16 14 14 16 17 16 15 15 14 28 28 27 26 27 27 26 26
36 35 18 12 23 19 13 15 20 18 17 20 19 14 11 12 16 18 19 18 16 13 18 20 19 15 12 12 10 10 11 13 23 27 24 20 26 27 26 25 25 27 24 26 27
Wind_Speed
10 10 10 11 12 13 13 15 15 15 14 15 16 17 16 16 14 1 4 3 5 10 8 10 9 11 3 0 4 5 5 10 9 8 6 8 8 7 10 8 4 3 4 11 26
10 11 11 11 12 12 13 14 16 16 16 15 15 16 15 15 2 3 5 6 8 7 8 9 11 13 5 2 1 5 5 10 10 17 16 17 15 21 10 15 4 2 5 25 29
10 10 12 12 14 14 14 14 14 15 16 16 16 16 14 4 0 3 5 7 9 6 3 4 5 2 4 4 2 2 10 16 19 19 17 17 20 11 10 10 6 6 20 27 27
12 13 13 13 14 14 15 15 15 14 14 15 16 17 17 2 4 4 4 8 9 6 3 5 5 6 4 5 3 6 13 18 13 12 7 11 10 13 11 16 7 10 25 23 26
12 12 13 13 14 14 16 16 17 17 15 15 14 15 4 3 3 6 6 8 7 1 3 4 3 3 5 7 8 8 12 12 16 17 13 13 14 15 14 16 4 6 24 26 24
13 13 12 14 14 16 17 16 17 16 15 13 12 11 2 5 3 3 8 7 3 2 3 3 3 4 7 7 4 5 15 28 20 21 10 9 13 3 11 7 8 11 16 19 18
14 15 16 16 17 18 19 19 17 16 13 10 7 3 1 6 2 7 7 4 3 3 4 5 3 1 3 8 5 11 12 17 5 6 8 10 8 10 10 9 10 9 5 15 19
15 16 17 19 20 22 21 21 18 14 10 5 1 1 5 3 5 7 8 6 4 5 5 4 3 2 3 8 9 6 1 11 9 7 3 4 9 8 10 11 10 16 12 10 14
17 17 18 19 20 22 21 22 15 7 2 1 1 1 5 6 5 7 4 8 14 3 1 4 2 1 5 10 6 5 10 13 10 9 4 2 8 5 7 8 12 13 9 8 12
16 17 18 19 21 24 25 6 2 4 3 1 1 2 2 7 7 9 4 4 3 8 3 4 4 3 7 10 12 14 8 10 13 9 12 5 13 14 6 6 13 10 6 12 11
18 21 21 20 21 21 12 3 6 2 4 4 3 4 6 11 3 3 4 6 4 5 7 4 6 15 16 8 9 10 7 12 16 2 13 5 9 10 7 3 8 9 7 5 10
18 20 20 20 21 17 6 7 2 1 10 2 6 7 5 1 5 4 7 5 5 5 9 6 6 8 13 6 10 8 7 12 14 7 5 10 12 6 8 3 4 8 8 9 10
18 19 20 22 12 6 9 4 2 4 3 6 4 4 4 0 3 5 6 2 4 7 7 4 6 12 12 11 18 12 5 11 11 16 1 13 4 9 4 4 1 2 3 12 16
19 20 20 24 2 3 3 4 4 1 4 2 2 2 1 1 3 2 2 2 4 7 9 5 4 10 15 13 8 9 1 12 9 9 7 9 6 11 9 1 3 4 2 4 15
16 19 18 12 3 3 4 6 3 1 5 1 2 2 2 1 6 2 2 2 4 6 2 7 10 14 11 15 8 9 17 4 3 4 5 19 7 7 6 15 11 4 8 8 10
16 17 16 4 3 2 6 4 1 2 6 3 3 4 6 3 3 5 3 3 0 3 2 6 6 3 4 16 5 18 5 4 4 3 8 9 5 10 8 6 7 8 12 5 11
15 15 6 2 4 6 3 3 4 3 3 3 3 5 6 4 5 4 6 8 7 10 15 10 5 6 5 12 8 21 16 9 9 9 3 11 4 2 8 7 5 9 12 11 9
19 7 2 2 3 3 3 3 5 2 3 3 3 7 3 5 2 6 3 6 4 4 3 8 11 11 10 3 5 7 5 5 4 7 8 10 7 6 7 6 6 10 11 12 6
11 4 2 3 4 2 4 2 5 3 3 7 7 3 3 2 3 6 3 2 1 3 5 6 7 5 2 3 2 5 7 0 1 1 4 6 4 7 5 6 8 13 16 15 12
5 3 2 6 4 4 2 5 3 2 3 2 2 2 4 6 6 7 4 1 1 1 1 1 8 2 6 2 2 3 0 5 6 6 6 8 7 3 3 9 7 16 24 17 17
3 4 1 5 2 4 3 5 4 2 1 0 1 3 2 3 3 4 3 2 0 0 2 1 1 8 6 5 6 6 4 6 3 2 3 9 7 3 4 14 14 12 21 21 23
1 4 4 3 2 1 3 2 2 3 1 1 2 3 1 3 4 2 2 2 1 1 3 1 1 7 16 6 3 2 2 5 4 4 1 3 9 7 5 18 18 26 23 23 20
2 3 2 2 4 4 3 3 3 2 3 1 1 2 1 1 3 3 2 1 3 2 3 2 1 10 14 2 2 1 1 4 4 1 7 3 7 1 24 32 30 24 22 22 17
0 4 2 3 2 2 2 3 2 1 2 2 2 1 1 1 2 4 4 2 5 4 2 3 4 9 12 20 3 13 9 5 3 5 6 16 21 20 22 26 30 30 22 15 12
1 4 1 3 3 3 2 2 2 2 1 0 1 1 1 2 4 4 2 8 8 3 2 3 8 7 12 18 16 21 24 12 14 13 9 6 1 13 23 24 22 21 25 25 24
4 4 1 2 1 4 3 4 5 2 1 2 3 1 2 4 4 12 7 3 8 2 3 1 6 1 8 14 15 18 24 15 12 10 15 20 8 18 16 18 19 21 25 26 26
2 0 2 2 4 4 5 5 4 1 0 1 2 4 6 9 5 9 13 14 19 11 4 3 4 5 7 3 11 10 2 6 9 13 2 3 8 19 23 27 23 17 23 23 24
Wind_Direction
351 348 344 338 334 334 332 329 329 330 331 333 338 338 339 336 324 341 347 263 288 309 336 332 355 354 18 341 190 147 240 259 254 255 265 272 316 299 295 279 280 229 165 147 141
352 343 339 336 330 329 326 325 324 323 325 330 333 332 331 326 324 300 251 247 289 310 337 349 341 346 356 316 276 203 223 249 231 247 259 271 286 293 300 305 261 214 110 140 145
350 344 337 334 328 325 322 318 316 316 321 326 329 329 328 314 140 280 232 249 286 326 304 302 315 352 325 343 269 244 248 257 261 253 256 276 284 275 270 298 261 216 161 155 155
347 343 336 330 328 323 318 315 312 310 315 322 328 331 328 202 31 290 266 275 293 310 327 347 352 360 317 296 284 287 258 262 271 274 266 273 267 269 252 262 289 231 161 159 162
341 338 333 327 323 319 317 314 311 310 315 323 329 335 7 360 264 268 300 315 313 325 286 334 357 341 296 297 304 241 272 268 265 271 268 260 269 255 274 277 245 213 155 166 167
337 334 330 324 319 316 311 306 306 306 311 321 324 332 37 355 235 278 318 317 303 241 257 233 253 248 280 265 267 267 286 284 284 266 240 238 266 183 268 215 199 177 177 167 174
338 334 330 327 323 317 311 306 301 300 308 313 316 16 21 266 295 323 319 283 277 232 274 238 200 224 290 291 258 279 304 317 303 304 216 190 279 234 261 207 209 193 178 93 52
337 335 332 327 323 318 313 304 297 293 295 298 269 83 259 261 306 318 324 322 294 281 234 257 174 246 232 292 319 316 294 351 335 1 291 155 266 302 326 203 166 131 118 108 79
341 334 329 324 321 317 312 306 300 280 179 156 148 30 297 316 341 320 311 319 324 5 15 112 85 326 338 331 350 12 324 334 325 23 332 210 265 298 318 175 164 139 140 129 94
337 331 327 325 325 325 324 317 48 115 86 147 246 323 293 320 311 319 309 333 329 341 23 37 27 340 359 11 342 311 321 319 316 324 349 253 258 288 293 205 176 170 190 152 140
340 336 332 329 329 332 349 2 6 312 20 261 285 272 305 318 297 324 337 345 17 52 0 356 10 356 326 303 281 283 282 311 316 289 349 292 273 278 252 204 197 224 229 221 161
340 338 333 331 330 339 34 62 80 243 310 282 263 271 269 15 315 319 1 29 29 343 349 354 338 323 318 300 339 328 306 333 314 301 332 344 302 310 216 268 213 228 236 223 187
343 341 338 331 333 35 72 65 317 159 288 302 237 266 282 126 298 298 13 7 10 343 354 284 288 328 349 344 353 342 286 319 307 315 68 356 30 10 354 13 32 337 238 169 156
345 345 345 334 62 351 42 336 328 219 350 271 283 297 328 321 291 239 39 34 4 328 339 279 310 340 343 350 1 332 358 310 316 6 10 11 35 23 9 90 280 236 275 196 165
347 346 342 17 323 47 321 320 334 285 316 358 288 298 303 290 315 8 352 51 323 312 -0 333 335 348 348 332 338 293 326 334 353 49 18 12 56 356 26 40 30 332 274 228 162
343 341 342 13 33 19 336 338 339 28 252 335 311 336 343 352 317 316 359 24 220 331 307 270 297 309 296 314 317 318 354 28 35 32 34 349 29 25 19 334 352 4 1 309 188
336 329 340 351 336 327 351 41 329 200 341 339 333 349 332 309 335 -0 355 9 22 3 352 331 331 340 347 341 359 8 24 1 18 18 344 343 51 327 337 347 351 1 16 18 176
332 340 12 67 344 352 45 42 236 252 260 352 342 319 303 351 344 333 349 352 42 47 339 348 337 2 352 21 315 347 44 55 347 346 314 338 16 350 330 344 347 31 29 49 49
337 359 27 351 359 36 88 260 243 215 322 342 337 335 329 339 321 351 5 346 52 44 18 343 294 320 352 347 8 348 25 235 355 285 311 327 316 307 350 28 30 33 24 11 359
350 356 336 330 16 62 80 244 273 303 345 19 352 19 316 324 340 359 334 24 35 44 62 243 295 316 308 359 46 58 135 9 22 10 341 325 312 283 353 354 18 20 6 345 341
2 322 308 349 36 63 239 253 302 308 359 257 230 291 284 310 332 314 314 2 20 277 31 126 195 294 339 28 336 352 39 57 94 69 23 334 303 252 14 49 9 340 338 331 332
41 281 337 2 299 94 221 241 295 281 276 235 183 231 259 336 298 291 297 277 23 164 352 0 178 300 298 292 260 276 62 85 21 323 332 234 276 347 78 347 346 328 332 332 330
244 271 3 57 246 231 270 272 267 290 293 275 241 195 111 258 296 257 276 333 20 339 358 175 310 323 334 20 36 72 235 117 108 85 234 227 259 209 4 353 341 335 324 324 331
98 288 323 46 91 251 240 251 236 218 278 294 297 24 0 277 225 284 295 337 338 240 239 175 208 212 255 279 305 299 283 244 183 229 237 236 270 321 352 350 346 341 336 323 348
100 243 174 275 249 212 252 269 258 263 166 243 277 211 186 284 302 266 298 318 305 302 167 186 260 214 253 275 283 279 281 266 233 235 249 247 239 358 351 347 351 0 18 26 20
209 192 142 236 228 190 222 239 220 243 202 254 233 225 258 235 222 288 304 276 273 317 173 178 271 303 278 269 280 285 290 273 245 247 244 267 288 356 346 346 1 12 17 14 4
185 70 142 239 175 170 229 206 201 136 351 3 159 337 276 270 258 261 256 246 247 246 214 228 243 340 294 347 319 297 62 123 107 49 334 73 353 344 346 344 339 1 17 4 352